Wind_Speed
5 5 5 5 6 7 7 8 8 8 8 8 9 10 10 10 10 9 10 10 11 11 11 11 11 11 11 12 13 14 14 15 16 17 17 18 19 19 19 19 19 20 20 19 18 17 16 16 15
6 6 6 6 7 8 8 9 9 9 10 9 10 10 10 11 11 10 11 11 11 12 13 13 13 13 13 14 15 16 16 17 18 19 19 20 20 20 20 20 20 20 20 19 19 18 17 16 15
8 7 7 7 7 8 9 9 9 10 12 12 12 12 12 12 12 12 13 13 13 14 14 14 14 15 16 16 17 18 18 19 20 21 21 21 22 22 22 22 22 21 20 20 20 19 18 17 16
8 8 7 7 7 7 8 9 10 11 12 12 13 13 13 13 13 13 13 14 14 15 15 16 16 17 18 18 19 20 21 21 22 23 24 24 24 24 23 23 23 23 22 21 20 20 19 18 16
8 8 9 8 8 8 10 11 12 12 12 13 13 14 14 14 14 14 14 14 14 15 16 16 17 18 19 20 20 21 21 22 23 24 26 27 26 26 26 25 24 24 23 22 21 20 20 19 17
7 8 8 9 9 11 11 12 13 13 13 13 14 14 14 14 14 14 15 15 15 16 16 17 18 19 19 20 21 22 23 23 24 25 26 27 27 27 27 27 26 25 24 23 22 21 20 19 18
8 8 9 10 11 11 12 13 13 14 14 14 14 14 14 14 14 15 15 15 16 16 17 17 18 18 19 20 22 22 23 24 25 26 27 28 28 28 27 27 27 27 27 25 24 23 22 20 19
9 10 10 10 11 11 12 13 13 13 13 14 14 14 14 14 15 15 15 15 16 17 18 18 18 19 19 20 21 23 24 25 26 27 27 29 30 29 29 28 28 28 28 27 26 25 24 23 21
10 10 10 10 11 11 12 12 12 12 12 13 13 14 14 15 15 16 16 17 17 18 19 19 19 19 20 21 21 22 23 24 25 26 27 28 29 30 30 30 30 29 30 29 28 27 26 26 24
11 11 11 10 9 10 12 13 13 13 13 13 13 14 14 14 15 16 17 18 18 19 19 20 19 19 20 20 20 20 21 23 24 25 26 27 28 29 30 31 31 31 31 30 29 28 27 27 26
11 10 11 10 9 10 11 12 12 12 12 12 13 13 13 14 16 17 17 18 18 19 19 20 20 20 20 20 20 20 21 22 23 24 25 26 27 28 29 31 31 31 32 32 31 30 29 28 27
11 11 11 10 10 9 10 11 11 11 11 12 12 13 14 15 16 17 18 19 19 20 20 21 21 21 21 21 21 21 21 21 22 23 24 25 26 28 29 30 31 31 32 33 33 32 31 29 28
13 12 10 9 9 9 9 10 11 11 11 11 12 13 13 15 16 17 18 20 21 22 22 22 22 22 22 21 21 21 20 20 21 22 23 24 25 26 28 29 31 31 31 33 34 33 32 31 30
13 12 10 9 9 9 9 9 9 10 10 11 12 12 13 15 16 18 19 21 22 23 23 23 24 24 23 23 22 21 20 20 20 21 21 22 24 25 26 27 29 30 31 32 33 34 34 33 32
14 12 11 9 8 8 8 8 8 9 9 10 11 12 13 15 16 18 20 21 22 23 24 24 25 25 25 23 23 22 21 21 20 20 20 21 22 23 24 25 27 29 30 31 33 34 34 34 33
14 13 11 9 8 9 8 7 6 7 8 9 10 11 13 15 17 18 20 21 22 23 24 24 25 25 25 24 23 23 22 21 20 20 19 19 20 21 22 24 26 27 28 30 32 33 34 35 34
14 13 11 9 8 8 7 6 5 5 6 8 9 11 13 15 16 18 20 21 22 23 24 24 25 26 25 25 24 23 22 22 21 20 19 18 18 19 20 22 24 26 27 29 31 33 34 35 36
14 13 11 9 8 7 6 5 5 5 6 7 9 11 13 15 16 18 19 21 22 23 24 25 26 26 26 25 25 24 23 22 21 20 19 18 18 18 19 21 22 25 27 28 30 32 34 35 36
14 13 11 9 8 7 5 5 5 5 5 7 8 11 13 15 16 18 20 21 22 23 24 25 25 26 26 26 26 25 24 22 21 20 19 17 17 17 18 19 21 23 26 28 30 32 33 35 36
14 12 11 9 8 7 5 4 4 5 5 6 8 10 13 15 16 18 20 21 22 23 24 25 26 26 27 27 26 26 25 23 21 20 19 18 17 16 16 17 19 22 24 27 29 31 34 34 35
14 12 10 9 8 7 5 5 4 4 4 6 8 10 13 15 16 18 19 21 21 22 23 25 26 26 27 27 27 27 26 24 22 21 20 19 17 16 16 16 18 20 22 25 27 30 33 35 36
13 11 10 8 7 6 5 5 4 4 4 5 7 9 11 14 15 17 19 20 21 22 23 24 25 26 27 28 28 28 27 25 23 22 21 20 18 17 15 15 15 17 19 22 25 28 31 34 36
12 10 9 8 7 6 6 4 2 2 3 4 6 8 10 12 14 16 18 19 20 21 23 24 25 26 28 28 29 28 27 26 24 23 22 21 20 18 16 14 14 15 17 19 22 25 29 32 34
11 10 9 9 8 8 7 5 3 1 2 3 5 7 10 11 13 15 16 18 20 21 23 24 25 27 28 28 28 28 28 27 26 24 23 22 21 19 17 15 13 13 15 17 19 22 25 29 32
12 11 10 10 10 10 8 6 3 2 2 3 4 6 9 11 12 14 16 17 19 21 22 24 25 27 27 28 28 28 28 28 27 25 24 23 22 20 18 15 13 12 12 14 17 20 23 26 30
12 11 11 11 12 10 9 7 4 4 3 3 4 6 8 10 11 13 15 16 18 20 22 23 25 26 27 28 28 28 28 28 28 26 25 24 23 21 18 16 13 11 10 11 14 17 21 23 27
12 11 11 11 12 11 10 8 6 5 4 4 5 6 8 9 10 12 14 16 18 20 21 23 25 26 27 28 28 28 28 28 28 27 26 25 24 21 19 17 14 11 8 7 9 13 16 20 23
12 11 11 11 12 12 11 9 7 6 5 4 5 5 7 8 10 12 14 15 17 19 21 22 24 25 26 27 27 27 28 28 28 27 27 26 25 22 20 19 15 12 7 4 4 8 12 15 19
12 12 12 11 12 12 12 10 8 7 5 5 5 5 6 8 9 11 13 15 16 18 20 22 23 25 25 26 27 27 28 28 27 27 27 27 26 24 22 20 17 13 9 5 2 4 8 12 15
12 13 12 12 12 13 12 10 10 7 6 6 5 5 6 8 9 11 13 14 16 18 19 21 23 24 25 26 27 27 27 28 27 27 27 27 27 25 24 22 18 15 12 8 3 2 5 8 11
Wind_Direction
11 15 39 37 45 46 38 30 22 20 16 6 356 349 343 341 339 331 323 318 318 317 312 306 300 294 291 286 282 278 273 266 259 254 251 250 250 250 251 253 255 257 258 259 261 264 267 270 273
356 5 26 27 31 27 22 19 12 7 2 356 349 343 337 334 331 324 318 315 313 309 305 300 296 290 287 285 281 278 274 268 262 257 253 251 251 250 251 253 255 255 256 258 261 263 263 266 268
355 360 7 16 18 13 10 7 6 359 355 349 343 339 335 330 326 320 315 310 309 305 302 299 294 290 285 283 279 276 275 270 265 262 257 254 253 252 253 254 256 256 256 256 259 260 260 262 264
349 351 355 354 356 360 359 355 357 353 350 344 340 337 335 331 327 321 316 313 309 307 303 298 294 290 286 282 278 276 273 269 266 263 259 257 256 254 254 255 256 256 255 254 256 256 257 258 259
337 335 333 329 343 352 351 348 348 348 344 341 339 338 337 335 330 326 322 319 315 313 309 304 298 293 288 284 280 276 273 269 266 264 261 258 258 256 254 256 256 255 253 253 253 253 255 255 254
318 318 321 328 339 344 347 347 345 343 343 342 341 340 339 339 336 332 330 328 324 320 315 310 304 297 292 287 284 278 274 270 266 264 261 259 257 256 255 255 254 252 251 253 253 251 251 251 250
312 311 314 318 327 338 342 341 342 343 345 343 342 342 342 343 341 339 337 333 328 324 320 317 313 307 300 293 287 282 277 272 269 266 263 261 259 257 255 254 252 249 250 250 250 249 247 247 247
298 303 309 313 324 333 337 338 342 344 345 344 345 345 346 347 347 345 342 339 335 330 325 321 316 312 307 300 293 287 281 274 271 268 266 262 259 257 254 253 252 248 248 249 248 248 246 244 244
288 292 300 307 318 328 335 338 343 346 347 345 346 347 347 348 350 349 347 343 341 337 333 329 324 318 312 306 299 291 285 279 273 270 267 264 260 257 253 252 251 249 248 247 246 246 245 242 240
281 288 294 300 312 324 335 339 342 344 347 347 348 349 350 351 352 351 349 346 344 341 338 335 332 327 320 313 306 298 289 283 277 274 270 265 261 257 253 251 251 249 248 246 244 243 243 240 238
276 281 286 303 310 320 327 334 339 341 346 350 349 350 354 356 355 353 352 350 347 345 342 339 335 330 325 320 313 305 295 286 281 277 273 268 263 259 255 252 251 248 246 244 242 242 241 238 235
274 276 282 295 305 314 325 331 339 342 348 350 352 355 359 358 356 355 355 353 351 349 346 343 340 336 331 325 319 312 303 293 286 281 276 270 265 260 256 253 251 249 245 244 241 241 241 235 233
272 276 284 290 299 307 320 329 337 342 349 352 356 358 359 357 356 357 356 355 353 350 347 345 344 342 338 332 326 320 311 301 293 286 279 273 268 263 258 253 250 247 245 243 240 238 238 234 232
272 278 285 294 300 304 313 325 335 344 351 354 359 2 360 359 359 358 357 357 354 351 350 348 346 343 340 335 332 326 318 310 301 293 286 278 271 266 260 255 249 246 245 242 238 236 234 233 232
270 273 285 291 294 303 312 322 335 343 348 355 2 6 4 1 1 0 360 358 355 354 352 350 347 345 342 338 335 331 325 318 311 303 294 284 276 269 263 256 251 246 244 242 238 235 233 232 232
265 269 276 283 281 292 305 319 337 339 347 359 6 9 6 4 4 3 1 359 358 357 355 353 350 348 346 343 340 335 330 325 319 311 301 291 280 273 266 258 252 248 243 240 237 234 232 230 229
264 266 270 273 276 282 298 315 334 342 351 4 12 12 9 5 5 3 2 0 360 359 357 356 353 352 351 348 344 341 336 330 325 319 309 299 288 277 268 261 255 250 244 239 236 234 232 230 228
260 263 270 275 278 282 289 315 337 344 354 6 12 13 10 5 4 2 1 1 1 360 358 357 355 354 353 351 349 346 342 337 332 326 317 307 297 284 273 265 259 252 245 239 236 233 231 229 228
251 260 269 276 279 284 297 326 335 339 350 5 12 12 9 6 3 1 1 1 1 360 359 357 357 356 355 353 351 348 345 340 336 333 326 317 307 294 280 270 261 254 246 240 237 234 230 229 227
248 258 265 268 279 287 301 319 325 337 354 5 10 8 7 5 2 1 1 1 360 359 359 358 357 356 355 354 352 350 348 344 339 337 334 326 316 304 291 278 267 257 247 241 238 234 230 228 226
244 253 261 268 272 279 294 308 314 340 356 2 4 4 3 2 360 360 0 360 359 359 358 358 358 357 357 356 355 354 352 349 345 342 339 334 324 314 301 288 274 262 250 242 239 235 230 228 227
244 250 256 261 260 271 280 292 313 346 351 359 0 359 359 358 357 358 359 359 359 359 359 359 359 359 359 358 357 356 355 353 349 346 343 340 334 325 314 300 281 267 254 244 239 235 230 227 226
241 245 249 249 252 259 266 274 297 322 343 354 353 353 355 355 354 355 357 359 359 359 360 0 360 359 359 359 359 359 358 356 354 351 347 344 340 332 322 310 294 274 258 247 240 234 228 227 226
233 240 243 244 245 246 252 256 254 279 335 347 347 349 350 352 352 354 357 359 360 0 360 360 360 359 360 0 1 1 1 0 358 355 353 349 345 339 331 321 307 285 265 248 239 232 228 227 226
232 239 240 238 237 242 250 248 257 290 313 329 339 345 347 348 350 353 355 357 359 0 0 0 0 1 1 2 2 3 4 3 2 0 357 355 351 347 341 333 322 304 277 252 239 232 228 226 225
232 237 239 239 240 243 249 248 260 276 289 310 334 341 344 346 349 350 352 355 358 359 359 360 1 1 2 3 4 5 5 6 6 4 3 1 359 356 350 343 334 318 293 259 240 232 229 226 225
231 235 236 238 240 245 247 248 256 265 278 305 327 333 338 343 346 348 350 353 356 357 359 0 1 2 3 5 5 6 7 7 7 8 8 7 6 3 0 355 348 336 314 274 240 231 229 226 225
229 233 236 237 240 245 248 248 255 259 272 288 301 313 327 336 341 345 348 351 354 356 358 0 2 3 4 6 6 7 7 8 10 11 11 11 10 8 8 7 2 360 350 307 243 232 227 225 224
224 229 234 239 242 243 248 250 254 258 258 264 275 301 322 332 337 341 345 349 351 354 356 358 0 2 4 5 6 7 8 9 9 11 12 13 13 13 12 10 11 10 12 5 286 238 226 221 221
226 230 232 238 242 246 251 250 252 255 255 261 277 303 321 328 333 338 343 346 349 351 354 356 359 1 2 4 6 7 8 9 10 10 11 13 15 17 17 16 15 14 13 10 353 247 228 222 221
Height
5916 5914 5912 5911 5910 5910 5909 5909 5907 5906 5906 5904 5902 5900 5899 5898 5897 5898 5894 5891 5889 5888 5887 5886 5885 5885 5884 5883 5882 5882 5881 5880 5880 5880 5880 5880 5881 5881 5881 5882 5882 5882 5883 5883 5883 5883 5883 5883 5883
5915 5914 5912 5912 5910 5910 5910 5908 5907 5906 5905 5903 5901 5900 5898 5896 5895 5893 5890 5888 5887 5885 5884 5883 5883 5882 5881 5880 5879 5879 5878 5877 5877 5877 5877 5877 5877 5877 5878 5878 5878 5879 5879 5880 5880 5880 5881 5881 5881
5915 5914 5913 5912 5911 5910 5910 5908 5906 5905 5903 5902 5900 5898 5896 5895 5893 5890 5888 5886 5884 5883 5881 5880 5879 5878 5878 5877 5876 5875 5874 5874 5873 5873 5873 5873 5873 5873 5874 5874 5875 5875 5876 5876 5877 5877 5878 5878 5879
5916 5914 5913 5912 5911 5910 5909 5907 5906 5904 5902 5900 5898 5896 5894 5892 5890 5888 5885 5883 5882 5880 5878 5877 5875 5874 5873 5872 5871 5871 5870 5869 5869 5869 5868 5868 5869 5869 5869 5870 5870 5871 5872 5872 5873 5874 5875 5875 5876
5915 5914 5913 5911 5910 5909 5908 5906 5904 5903 5901 5899 5896 5894 5892 5890 5887 5885 5883 5881 5879 5877 5875 5873 5872 5870 5869 5868 5866 5866 5865 5864 5864 5863 5863 5863 5864 5864 5864 5865 5865 5866 5867 5868 5869 5870 5871 5872 5873
5914 5913 5913 5910 5909 5908 5907 5905 5903 5901 5899 5897 5895 5892 5890 5888 5885 5882 5880 5878 5875 5873 5871 5870 5868 5866 5864 5863 5861 5860 5859 5858 5858 5858 5857 5857 5858 5858 5859 5859 5860 5861 5862 5864 5865 5866 5867 5869 5870
5914 5913 5911 5910 5909 5907 5906 5903 5901 5899 5897 5895 5893 5891 5888 5886 5883 5880 5878 5875 5873 5870 5868 5866 5864 5862 5860 5858 5856 5854 5853 5852 5852 5851 5851 5851 5851 5852 5853 5853 5854 5856 5857 5858 5860 5861 5863 5865 5866
5914 5913 5910 5909 5907 5905 5904 5902 5900 5898 5896 5893 5891 5889 5886 5884 5881 5878 5876 5873 5870 5868 5865 5863 5860 5858 5855 5853 5851 5848 5847 5846 5845 5844 5844 5844 5845 5845 5846 5847 5848 5850 5851 5853 5855 5856 5858 5860 5862
5912 5911 5908 5907 5906 5904 5902 5900 5898 5896 5894 5892 5889 5887 5884 5881 5879 5876 5873 5870 5867 5864 5862 5859 5856 5853 5851 5848 5845 5843 5841 5839 5838 5837 5837 5837 5837 5838 5839 5840 5842 5843 5845 5847 5849 5851 5853 5855 5858
5910 5909 5908 5906 5904 5902 5900 5898 5897 5895 5893 5890 5888 5885 5883 5880 5877 5874 5871 5868 5865 5862 5858 5855 5852 5849 5846 5843 5840 5837 5835 5833 5832 5831 5830 5830 5830 5831 5831 5833 5835 5836 5838 5840 5842 5845 5848 5850 5853
5907 5907 5905 5902 5902 5900 5898 5897 5895 5893 5891 5889 5887 5884 5881 5879 5876 5873 5869 5866 5863 5859 5856 5852 5849 5845 5842 5838 5835 5832 5829 5827 5825 5824 5823 5823 5823 5823 5824 5825 5827 5829 5831 5833 5836 5839 5841 5844 5847
5905 5904 5902 5901 5900 5898 5897 5895 5893 5892 5890 5888 5885 5882 5879 5877 5874 5871 5867 5864 5860 5857 5853 5849 5845 5841 5837 5834 5830 5826 5823 5821 5819 5817 5816 5816 5816 5816 5817 5817 5819 5821 5823 5826 5829 5832 5835 5838 5842
5902 5901 5900 5899 5898 5896 5895 5893 5892 5890 5888 5885 5883 5881 5878 5876 5873 5869 5865 5862 5858 5854 5850 5846 5842 5838 5833 5829 5825 5822 5818 5815 5813 5811 5809 5809 5808 5808 5809 5810 5811 5813 5816 5818 5821 5825 5828 5832 5836
5898 5898 5897 5896 5896 5894 5893 5891 5890 5888 5886 5884 5882 5880 5877 5874 5871 5868 5864 5860 5856 5852 5847 5843 5839 5834 5830 5826 5821 5817 5813 5810 5807 5805 5803 5802 5801 5801 5801 5802 5804 5806 5808 5810 5814 5817 5821 5825 5829
5896 5896 5896 5895 5894 5893 5892 5890 5888 5886 5885 5883 5881 5878 5876 5873 5870 5866 5862 5858 5854 5850 5845 5841 5836 5831 5827 5822 5818 5813 5809 5805 5802 5799 5797 5795 5794 5794 5794 5794 5796 5798 5800 5803 5805 5809 5813 5818 5822
5893 5893 5893 5893 5892 5891 5891 5889 5887 5885 5883 5881 5879 5877 5875 5872 5869 5865 5861 5857 5853 5848 5843 5839 5834 5829 5824 5819 5814 5810 5805 5801 5797 5794 5792 5789 5788 5787 5787 5787 5788 5790 5792 5795 5798 5801 5806 5810 5815
5890 5890 5890 5891 5889 5888 5888 5886 5885 5884 5882 5880 5878 5876 5874 5871 5868 5864 5860 5856 5851 5847 5842 5837 5832 5827 5822 5816 5811 5806 5802 5797 5793 5789 5786 5784 5782 5781 5781 5781 5781 5783 5785 5787 5790 5794 5798 5803 5808
5887 5887 5887 5887 5887 5886 5885 5884 5883 5882 5880 5879 5877 5875 5872 5870 5867 5863 5859 5855 5850 5846 5841 5836 5831 5826 5820 5815 5809 5804 5799 5794 5789 5785 5782 5779 5777 5775 5774 5774 5774 5776 5777 5780 5783 5786 5790 5795 5800
5884 5884 5884 5885 5884 5884 5883 5882 5881 5880 5878 5877 5875 5873 5871 5869 5866 5862 5858 5854 5849 5845 5840 5835 5830 5824 5818 5813 5807 5801 5796 5791 5786 5782 5778 5775 5772 5770 5769 5768 5768 5769 5770 5773 5775 5779 5783 5787 5792
5881 5881 5882 5882 5881 5881 5880 5880 5879 5878 5876 5875 5873 5872 5870 5867 5865 5861 5857 5853 5848 5844 5839 5834 5829 5823 5817 5811 5805 5799 5794 5788 5783 5779 5774 5771 5768 5765 5763 5762 5762 5762 5763 5765 5768 5771 5775 5779 5784
5878 5878 5879 5879 5879 5878 5878 5878 5877 5876 5875 5873 5872 5870 5868 5866 5863 5860 5856 5852 5848 5844 5839 5834 5828 5822 5816 5810 5804 5797 5791 5786 5780 5776 5772 5768 5764 5761 5759 5757 5756 5755 5756 5758 5760 5763 5767 5772 5777
5875 5876 5876 5876 5876 5876 5877 5876 5876 5875 5874 5872 5871 5869 5867 5865 5862 5859 5856 5852 5847 5843 5838 5833 5827 5821 5815 5809 5802 5796 5790 5784 5779 5774 5769 5764 5760 5757 5754 5751 5750 5749 5750 5751 5753 5756 5760 5764 5769
5872 5873 5873 5874 5874 5874 5874 5875 5875 5873 5872 5871 5870 5868 5867 5864 5862 5859 5855 5851 5847 5843 5838 5833 5827 5821 5815 5808 5802 5795 5789 5783 5777 5772 5767 5762 5757 5753 5749 5747 5745 5744 5744 5745 5746 5749 5753 5757 5761
5869 5870 5871 5871 5872 5873 5872 5873 5873 5871 5870 5870 5869 5867 5865 5863 5861 5858 5855 5851 5847 5842 5837 5832 5826 5820 5814 5808 5801 5795 5788 5782 5776 5770 5765 5759 5754 5750 5746 5742 5740 5739 5738 5739 5741 5743 5746 5750 5755
5866 5868 5869 5869 5870 5870 5870 5870 5870 5869 5869 5868 5867 5866 5864 5862 5860 5857 5854 5851 5847 5842 5837 5832 5826 5820 5814 5808 5801 5795 5788 5781 5775 5769 5763 5758 5753 5748 5743 5739 5736 5735 5734 5734 5735 5738 5741 5745 5749
5863 5865 5867 5868 5868 5868 5868 5867 5868 5867 5867 5866 5865 5864 5863 5861 5859 5857 5854 5850 5846 5842 5837 5832 5826 5820 5814 5808 5801 5795 5788 5782 5775 5769 5763 5757 5752 5746 5741 5737 5734 5731 5730 5730 5731 5733 5736 5739 5743
5860 5862 5864 5865 5865 5865 5865 5866 5866 5865 5865 5864 5864 5863 5862 5860 5858 5856 5853 5849 5846 5841 5837 5831 5826 5820 5814 5808 5801 5795 5789 5782 5776 5769 5763 5757 5751 5746 5741 5736 5732 5729 5728 5727 5728 5730 5732 5735 5738
5858 5859 5861 5862 5862 5862 5863 5863 5864 5863 5863 5863 5862 5862 5861 5859 5857 5855 5852 5849 5845 5841 5836 5831 5826 5820 5814 5808 5802 5796 5790 5783 5777 5770 5764 5758 5752 5746 5741 5737 5732 5729 5727 5726 5726 5727 5729 5731 5734
5855 5857 5857 5858 5859 5860 5860 5863 5862 5862 5862 5862 5861 5861 5859 5858 5856 5853 5851 5848 5844 5840 5836 5831 5826 5821 5815 5809 5803 5797 5791 5784 5778 5772 5766 5760 5754 5747 5742 5738 5733 5730 5727 5726 5725 5726 5727 5729 5731
5852 5853 5855 5856 5857 5857 5858 5862 5859 5860 5860 5860 5859 5858 5857 5856 5854 5852 5849 5846 5843 5839 5835 5831 5826 5821 5815 5809 5804 5798 5792 5786 5779 5773 5768 5762 5756 5750 5744 5739 5735 5731 5728 5726 5725 5725 5725 5727 5728